Location: Ocean City
(38.3360°N, 75.0850°W)
Time: 18:48:13
(UTC-04:00)

STARS - Pass Details

Date: 24 May 2019
Orbit: 624 x 640 km, 98.3° (Epoch: 19 June)

Event Time Altitude Azimuth Distance (km) Brightness Sun altitude
Rises 22:02:38 0° 351° (N) 2,945 ? -18.0°
Reaches altitude 10° 22:05:53 10° 325° (NW) 2,027 ? -18.4°
Maximum altitude 22:08:00 13° 296° (WNW) 1,802 ? -18.7°
Drops below altitude 10° 22:10:06 10° 267° (W) 2,016 ? -19.0°
Sets 22:13:20 0° 241° (WSW) 2,915 ? -19.4°
